This demonstration page uses our WeatherBlox Daily Observations layout. Learn more.

Left ArrowRight Arrow

34.74481, -87.66753

Hourly Observations for February 10, 2018

Temp ( °F °C ) Dew Point ( °F °C ) Humidity (%) Winds ( mph kmh ) Pressure ( in mb ) Visibility ( mi km ) Precip ( " mm )
12:53 am 00:53 Cloudy 56 13.3 53 11.7 90 90 SSE 7 11 30.09 1019 9 14 0.01 0.25
1:53 am 01:53 Cloudy 57 13.9 53 11.7 87 87 S 7 11 30.09 1019 10 16 0.00 0.00
2:53 am 02:53 Cloudy 57 13.9 53 11.7 87 87 SSE 7 11 30.06 1018 10 16 0.00 0.00
3:53 am 03:53 Cloudy 57 13.9 54 12.2 90 90 S 7 11 30.05 1018 8 13 0.00 0.00
4:53 am 04:53 Cloudy 57 13.9 54 12.2 90 90 SSE 8 13 30.03 1017 7 11 0.00 0.00
5:53 am 05:53 Cloudy with Mist and Fog 57 13.9 54 12.2 90 90 Calm 30.04 1017 6 10 0.00 0.03
6:53 am 06:53 Cloudy with Light Rain 57 13.9 54 12.2 90 90 SE 8 13 30.03 1017 5 8 0.00 0.00
7:53 am 07:53 Cloudy 57 13.9 54 12.2 90 90 SSE 9 15 30.01 1016 7 11 0.00 0.03
8:53 am 08:53 Cloudy 58 14.4 55 12.8 90 90 SSE 10 17 30.00 1016 8 13 0.00 0.03
9:45 am 09:45 Cloudy with Heavy Rain 59 15 56 13.3 90 90 SSE 10 17 30.00 1016 2 3 0.00 0.00
9:53 am 09:53 Cloudy with Heavy Rain 59 15 56 13.3 90 90 S 10 17 30.00 1016 2 3 0.00 0.00
10:02 am 10:02 Cloudy with Rain 59 15 56 13.3 90 90 S 10 17 30.03 1017 3 5 0.00 0.00
10:18 am 10:18 Cloudy with Rain 59 15 56 13.3 90 90 S 9 15 30.03 1017 4 6 0.00 0.00
10:30 am 10:30 Cloudy with Rain 59 15 56 13.3 90 90 Calm 30.03 1017 3 5 0.00 0.00
10:44 am 10:44 Cloudy with Heavy Rain 59 15 56 13.3 90 90 NW 7 11 30.03 1017 2 3 0.00 0.00
10:53 am 10:53 Cloudy with Rain 59 15 56 13.3 90 90 Calm 30.01 1016 2 3 0.00 0.00
11:13 am 11:13 Cloudy with Heavy Rain 59 15 56 13.3 90 90 Calm 30.00 1016 2 3 0.00 0.00
11:40 am 11:40 Cloudy with Heavy Rain 58 14.4 56 13.3 93 93 ESE 3 6 30.00 1016 2 2 0.00 0.00
11:53 am 11:53 Cloudy with Heavy Rain 58 14.4 56 13.3 93 93 Calm 29.99 1016 1 2 0.00 0.00
12:25 pm 12:25 Cloudy with Heavy Rain 58 14.4 56 13.3 93 93 Calm 29.97 1015 1 2 0.00 0.00
12:53 pm 12:53 Cloudy with Heavy Rain 58 14.4 56 13.3 93 93 Calm 29.96 1014 2 3 0.00 0.00
1:02 pm 13:02 Cloudy with Heavy Rain 58 14.4 56 13.3 93 93 Calm 29.97 1015 1 2 0.01 0.25
1:33 pm 13:33 Cloudy with Heavy Rain 58 14.4 56 13.3 93 93 SE 9 15 29.94 1014 2 2 0.03 0.76
1:38 pm 13:38 Cloudy with Rain 58 14.4 56 13.3 93 93 SE 9 15 29.94 1014 3 5 0.03 0.76
1:53 pm 13:53 Cloudy with Rain 58 14.4 56 13.3 93 93 S 6 9 29.93 1014 4 6 0.04 1.02
2:28 pm 14:28 Cloudy with Heavy Rain 58 14.4 56 13.3 93 93 SE 5 7 29.94 1014 2 3 0.00 0.00
2:35 pm 14:35 Cloudy with Rain 58 14.4 56 13.3 93 93 SSE 8 13 29.94 1014 3 4 0.00 0.00
2:41 pm 14:41 Cloudy with Light Rain 58 14.4 56 13.3 93 93 SE 7 11 29.94 1014 3 5 0.00 0.00
2:53 pm 14:53 Cloudy with Light Rain 59 15 56 13.3 90 90 SE 10 17 29.91 1013 9 14 0.00 0.00
3:15 pm 15:15 Cloudy with Light Rain 59 15 56 13.3 90 90 SE 8 13 29.88 1012 8 13 0.02 0.51
3:53 pm 15:53 Cloudy with Light Rain 59 15 56 13.3 90 90 SE 7 11 29.90 1013 10 16 0.05 1.27
4:53 pm 16:53 Cloudy with Light Rain 58 14.4 56 13.3 93 93 SE 6 9 29.91 1013 7 11 0.06 1.52
5:04 pm 17:04 Cloudy with Light Rain 58 14.4 56 13.3 93 93 SSE 6 9 29.91 1013 8 13 0.01 0.25
5:23 pm 17:23 Cloudy with Light Rain 58 14.4 56 13.3 93 93 Calm 29.91 1013 10 16 0.01 0.25
5:48 pm 17:48 Cloudy with Light Rain 57 14 55 13 94 94 ESE 5 7 29.91 1013 10 16 0.02 0.51
5:53 pm 17:53 Cloudy with Light Rain 58 14.4 56 13.3 93 93 E 5 7 29.90 1013 10 16 0.02 0.51
6:53 pm 18:53 Cloudy with Light Rain 58 14.4 56 13.3 93 93 SE 3 6 29.90 1013 2 3 0.05 1.27
7:21 pm 19:21 Cloudy with Light Rain 58 14.4 56 13.3 93 93 SE 6 9 29.91 1013 4 6 0.03 0.76
7:50 pm 19:50 Cloudy with Rain 57 14 55 13 94 94 ESE 5 7 29.91 1013 2 3 0.07 1.78
7:53 pm 19:53 Cloudy with Rain 58 14.4 56 13.3 93 93 ESE 5 7 29.90 1013 2 2 0.08 2.03
8:03 pm 20:03 Cloudy with Rain 59 15 57 13.9 93 93 SE 3 6 29.88 1012 3 5 0.01 0.25
8:53 pm 20:53 Cloudy with Rain 60 15.6 58 14.4 93 93 SSE 8 13 29.90 1013 5 8 0.10 2.54
9:53 pm 21:53 Cloudy with Light Rain 60 15.6 58 14.4 93 93 SSE 6 9 29.88 1012 7 11 0.10 2.54
10:53 pm 22:53 Cloudy with Light Rain 60 15.6 58 14.4 93 93 SE 7 11 29.87 1012 8 13 0.04 1.02
11:53 pm 23:53 Cloudy 60 15.6 58 14.4 93 93 SSW 3 6 29.86 1011 10 16 0.01 0.25

Powered by AerisWeather